| time (UTC) | temp F | wind direction | speed MPH | gust MPH | rain 1hr in | rain 24hr in | rain mn in | humidity % | barometer mb |
| 20260509201034 | 65 | 198 | 1.0 | 5.0 | 0.00 | 0.00 | 0.00 | 2 | 1020.0 |
| 20260509200535 | 66 | 338 | 0.0 | 2.0 | 0.00 | 0.00 | 0.00 | 1 | 1020.1 |
| 20260509200031 | 65 | 235 | 0.0 | 3.0 | 0.00 | 0.00 | 0.00 | 1 | 1020.1 |
| 20260509195516 | 65 | 228 | 1.0 | 3.0 | 0.00 | 0.00 | 0.00 | 1 | 1020.0 |
| 20260509195011 | 65 | 283 | 0.0 | 5.0 | 0.00 | 0.00 | 0.00 | 1 | 1020.0 |
| 20260509194511 | 64 | 219 | 1.0 | 5.0 | 0.00 | 0.00 | 0.00 | 1 | 1020.0 |
| 20260509194009 | 64 | 72 | 1.0 | 3.0 | 0.00 | 0.00 | 0.00 | 1 | 1020.1 |
| 20260509193508 | 64 | 70 | 0.0 | 4.0 | 0.00 | 0.00 | 0.00 | 1 | 1020.1 |
| 20260509193005 | 64 | 235 | 0.0 | 2.0 | 0.00 | 0.00 | 0.00 | 1 | 1020.1 |
| 20260509192548 | 64 | 8 | 0.0 | 2.0 | 0.00 | 0.00 | 0.00 | 1 | 1020.2 |
| 20260509192045 | 63 | 19 | 0.0 | 3.0 | 0.00 | 0.00 | 0.00 | 1 | 1020.2 |
| 20260509191542 | 63 | 245 | 0.0 | 4.0 | 0.00 | 0.00 | 0.00 | 1 | 1020.3 |
| 20260509191042 | 64 | 228 | 3.0 | 4.0 | 0.00 | 0.00 | 0.00 | 1 | 1020.4 |
| 20260509190543 | 64 | 68 | 1.0 | 3.0 | 0.00 | 0.00 | 0.00 | 1 | 1020.4 |
| 20260509190038 | 64 | 247 | 1.0 | 3.0 | 0.00 | 0.00 | 0.00 | 1 | 1020.5 |
| 20260509185518 | 64 | 225 | 0.0 | 4.0 | 0.00 | 0.00 | 0.00 | 1 | 1020.4 |
| 20260509185016 | 64 | 236 | 1.0 | 4.0 | 0.00 | 0.00 | 0.00 | 2 | 1020.4 |
| 20260509184515 | 65 | 67 | 0.0 | 1.0 | 0.00 | 0.00 | 0.00 | 1 | 1020.5 |
| 20260509184015 | 65 | 58 | 0.0 | 2.0 | 0.00 | 0.00 | 0.00 | 1 | 1020.5 |
| 20260509183513 | 64 | 68 | 0.0 | 2.0 | 0.00 | 0.00 | 0.00 | 1 | 1020.5 |
| 20260509183011 | 64 | 249 | 0.0 | 2.0 | 0.00 | 0.00 | 0.00 | 1 | 1020.5 |
| 20260509182552 | 64 | 219 | 0.0 | 3.0 | 0.00 | 0.00 | 0.00 | 1 | 1020.5 |
| 20260509182050 | 63 | 233 | 0.0 | 3.0 | 0.00 | 0.00 | 0.00 | 1 | 1020.6 |
| 20260509181549 | 64 | 76 | 0.0 | 1.0 | 0.00 | 0.00 | 0.00 | 1 | 1020.7 |
| 20260509181047 | 64 | 225 | 0.0 | 2.0 | 0.00 | 0.00 | 0.00 | 1 | 1020.8 |
| 20260509180546 | 64 | 243 | 0.0 | 4.0 | 0.00 | 0.00 | 0.00 | 1 | 1020.7 |
| 20260509180044 | 64 | 228 | 2.0 | 4.0 | 0.00 | 0.00 | 0.00 | 1 | 1020.7 |
| 20260509175527 | 63 | 235 | 0.0 | 4.0 | 0.00 | 0.00 | 0.00 | 1 | 1020.6 |
| 20260509175026 | 63 | 235 | 1.0 | 4.0 | 0.00 | 0.00 | 0.00 | 1 | 1020.7 |
| 20260509174523 | 64 | 232 | 2.0 | 4.0 | 0.00 | 0.00 | 0.00 | 1 | 1020.8 |
| 20260509174023 | 64 | 235 | 0.0 | 4.0 | 0.00 | 0.00 | 0.00 | 1 | 1020.8 |
| 20260509173520 | 64 | 213 | 0.0 | 2.0 | 0.00 | 0.00 | 0.00 | 1 | 1020.8 |
| 20260509173020 | 64 | 146 | 0.0 | 1.0 | 0.00 | 0.00 | 0.00 | 1 | 1020.8 |
| 20260509172559 | 63 | 278 | 0.0 | 2.0 | 0.00 | 0.00 | 0.00 | 1 | 1020.7 |
| 20260509172058 | 63 | 64 | 0.0 | 2.0 | 0.00 | 0.00 | 0.00 | 1 | 1020.8 |
| 20260509171622 | 61 | 85 | 0.0 | 1.0 | 0.00 | 0.00 | 0.00 | 1 | 1020.9 |
| 20260509171054 | 61 | 239 | 0.0 | 2.0 | 0.00 | 0.00 | 0.00 | 1 | 1020.9 |
| 20260509170553 | 60 | 245 | 0.0 | 3.0 | 0.00 | 0.00 | 0.00 | 1 | 1020.8 |
| 20260509170052 | 60 | 302 | 0.0 | 4.0 | 0.00 | 0.00 | 0.00 | 1 | 1020.8 |
| 20260509165532 | 60 | 49 | 0.0 | 1.0 | 0.00 | 0.00 | 0.00 | 1 | 1020.9 |
| 20260509165032 | 59 | 27 | 0.0 | 3.0 | 0.00 | 0.00 | 0.00 | 1 | 1020.9 |
| 20260509164530 | 60 | 27 | 0.0 | 3.0 | 0.00 | 0.00 | 0.00 | 1 | 1020.9 |
| 20260509164030 | 59 | 143 | 0.0 | 3.0 | 0.00 | 0.00 | 0.00 | 1 | 1020.8 |
| 20260509163528 | 59 | 26 | 0.0 | 3.0 | 0.00 | 0.00 | 0.00 | 1 | 1020.9 |
| 20260509163025 | 58 | 34 | 0.0 | 2.0 | 0.00 | 0.00 | 0.00 | 1 | 1020.9 |
| 20260509162508 | 57 | 25 | 0.0 | 2.0 | 0.00 | 0.00 | 0.00 | 1 | 1021.0 |
| 20260509162006 | 57 | 240 | 0.0 | 2.0 | 0.00 | 0.00 | 0.00 | 1 | 1021.0 |
| 20260509161506 | 57 | 275 | 0.0 | 2.0 | 0.00 | 0.00 | 0.00 | 1 | 1021.1 |
| 20260509161003 | 56 | 263 | 0.0 | 2.0 | 0.00 | 0.00 | 0.00 | 1 | 1021.1 |
| 20260509160503 | 56 | 29 | 0.0 | 2.0 | 0.00 | 0.00 | 0.00 | 1 | 1021.0 |
| 20260509160001 | 56 | 36 | 0.0 | 3.0 | 0.00 | 0.00 | 0.00 | 1 | 1021.1 |
| 20260509155541 | 56 | 61 | 0.0 | 2.0 | 0.00 | 0.00 | 0.00 | 1 | 1021.0 |
| 20260509155041 | 56 | 74 | 0.0 | 1.0 | 0.00 | 0.00 | 0.00 | 1 | 1021.1 |
| 20260509154543 | 55 | 322 | 0.0 | 1.0 | 0.00 | 0.00 | 0.00 | 1 | 1021.1 |
| 20260509154037 | 55 | 315 | 0.0 | 1.0 | 0.00 | 0.00 | 0.00 | 1 | 1021.2 |
| 20260509153536 | 55 | 315 | 0.0 | 1.0 | 0.00 | 0.00 | 0.00 | 1 | 1021.2 |
| 20260509153038 | 55 | 48 | 0.0 | 1.0 | 0.00 | 0.00 | 0.00 | 1 | 1021.3 |
| 20260509152516 | 55 | 358 | 0.0 | 0.0 | 0.00 | 0.00 | 0.00 | 1 | 1021.2 |
| 20260509152015 | 55 | 360 | 0.0 | 0.0 | 0.00 | 0.00 | 0.00 | 1 | 1021.2 |
| 20260509151513 | 55 | 49 | 0.0 | 0.0 | 0.00 | 0.00 | 0.00 | 1 | 1021.2 |
| 20260509151012 | 55 | 322 | 0.0 | 0.0 | 0.00 | 0.00 | 0.00 | 1 | 1021.3 |
| 20260509150510 | 55 | 8 | 0.0 | 0.0 | 0.00 | 0.00 | 0.00 | 1 | 1021.3 |
| 20260509150008 | 54 | 54 | 0.0 | 0.0 | 0.00 | 0.00 | 0.00 | 1 | 1021.3 |
| 20260509145608 | 54 | 54 | 0.0 | 0.0 | 0.00 | 0.00 | 0.00 | 1 | 1021.4 |
| 20260509145051 | 54 | 53 | 0.0 | 0.0 | 0.00 | 0.00 | 0.00 | 1 | 1021.3 |
| 20260509144644 | 54 | 54 | 0.0 | 0.0 | 0.00 | 0.00 | 0.00 | 1 | 1021.3 |
| 20260509144049 | 54 | 53 | 0.0 | 0.0 | 0.00 | 0.00 | 0.00 | 1 | 1021.4 |
| 20260509143545 | 54 | 54 | 0.0 | 0.0 | 0.00 | 0.00 | 0.00 | 1 | 1021.5 |
| 20260509143048 | 54 | 52 | 0.0 | 0.0 | 0.00 | 0.00 | 0.00 | 1 | 1021.3 |
| 20260509142545 | 53 | 53 | 0.0 | 0.0 | 0.00 | 0.00 | 0.00 | 1 | 1021.4 |
| 20260509142027 | 53 | 54 | 0.0 | 0.0 | 0.00 | 0.00 | 0.00 | 1 | 1021.4 |
| 20260509141534 | 53 | 56 | 0.0 | 0.0 | 0.00 | 0.00 | 0.00 | 1 | 1021.4 |
| 20260509141026 | 53 | 56 | 0.0 | 0.0 | 0.00 | 0.00 | 0.00 | 1 | 1021.4 |
| 20260509140523 | 53 | 56 | 0.0 | 0.0 | 0.00 | 0.00 | 0.00 | 1 | 1021.3 |
| 20260509140021 | 53 | 56 | 0.0 | 0.0 | 0.00 | 0.00 | 0.00 | 1 | 1021.4 |
| 20260509135520 | 53 | 56 | 0.0 | 0.0 | 0.00 | 0.00 | 0.00 | 1 | 1021.4 |
| 20260509135019 | 53 | 56 | 0.0 | 0.0 | 0.00 | 0.00 | 0.00 | 1 | 1021.3 |
| 20260509134518 | 0 | 0.0 | 0.0 | 0.00 | 0.00 | 0.00 | 1021.2 | ||
| 20260509134019 | 0 | 0.0 | 0.0 | 0.00 | 0.00 | 0.00 | 1021.3 | ||
| 20260509133514 | 0 | 0.0 | 0.0 | 0.00 | 0.00 | 0.00 | 1021.4 | ||
| 20260509133013 | 0 | 0.0 | 0.0 | 0.00 | 0.00 | 0.00 | 1021.3 | ||
| 20260509132512 | 0 | 0.0 | 0.0 | 0.00 | 0.00 | 0.00 | 1021.3 | ||
| 20260509132010 | 0 | 0.0 | 0.0 | 0.00 | 0.00 | 0.00 | 1021.4 | ||
| 20260509131512 | 0 | 0.0 | 0.0 | 0.00 | 0.00 | 0.00 | 1021.4 | ||
| 20260509131007 | 0 | 0.0 | 0.0 | 0.00 | 0.00 | 0.00 | 1021.4 | ||
| 20260509130506 | 0 | 0.0 | 0.0 | 0.00 | 0.00 | 0.00 | 1021.3 | ||
| 20260509130005 | 0 | 0.0 | 0.0 | 0.00 | 0.00 | 0.00 | 1021.3 | ||
| 20260509125505 | 0 | 0.0 | 0.0 | 0.00 | 0.00 | 0.00 | 1021.5 | ||
| 20260509125001 | 0 | 0.0 | 0.0 | 0.00 | 0.00 | 0.00 | 1021.6 | ||
| 20260509124615 | 0 | 0.0 | 0.0 | 0.00 | 0.00 | 0.00 | 1021.6 | ||
| 20260509124058 | 0 | 0.0 | 0.0 | 0.00 | 0.00 | 0.00 | 1021.6 | ||
| 20260509123557 | 0 | 0.0 | 0.0 | 0.00 | 0.00 | 0.00 | 1021.5 | ||
| 20260509123100 | 0 | 0.0 | 0.0 | 0.00 | 0.00 | 0.00 | 1021.5 | ||
| 20260509122554 | 0 | 0.0 | 0.0 | 0.00 | 0.00 | 0.00 | 1021.5 | ||
| 20260509122035 | 0 | 0.0 | 0.0 | 0.00 | 0.00 | 0.00 | 1021.5 | ||
| 20260509121536 | 0 | 0.0 | 0.0 | 0.00 | 0.00 | 0.00 | 1021.7 | ||
| 20260509121033 | 0 | 0.0 | 0.0 | 0.00 | 0.00 | 0.00 | 1021.7 | ||
| 20260509120531 | 0 | 0.0 | 0.0 | 0.00 | 0.00 | 0.00 | 1021.7 | ||
| 20260509120030 | 0 | 0.0 | 0.0 | 0.00 | 0.00 | 0.00 | 1021.8 | ||
| 20260509115528 | 0 | 0.0 | 0.0 | 0.00 | 0.00 | 0.00 | 1021.8 | ||
| 20260509115009 | 0 | 0.0 | 0.0 | 0.00 | 0.00 | 0.00 | 1021.7 | ||
| 20260509114508 | 0 | 0.0 | 0.0 | 0.00 | 0.00 | 0.00 | 1021.8 | ||
| 20260509114007 | 0 | 0.0 | 0.0 | 0.00 | 0.00 | 0.00 | 1021.8 | ||
| 20260509113509 | 0 | 0.0 | 0.0 | 0.00 | 0.00 | 0.00 | 1021.8 | ||
| 20260509113004 | 0 | 0.0 | 0.0 | 0.00 | 0.00 | 0.00 | 1021.8 | ||
| 20260509112503 | 0 | 0.0 | 0.0 | 0.00 | 0.00 | 0.00 | 1021.8 | ||
| 20260509112044 | 0 | 0.0 | 0.0 | 0.00 | 0.00 | 0.00 | 1021.9 | ||
| 20260509111542 | 0 | 0.0 | 0.0 | 0.00 | 0.00 | 0.00 | 1021.9 | ||
| 20260509111041 | 0 | 0.0 | 0.0 | 0.00 | 0.00 | 0.00 | 1021.9 | ||
| 20260509110540 | 0 | 0.0 | 0.0 | 0.00 | 0.00 | 0.00 | 1022.1 | ||
| 20260509110038 | 0 | 0.0 | 0.0 | 0.00 | 0.00 | 0.00 | 1022.1 | ||
| 20260509105537 | 0 | 0.0 | 0.0 | 0.00 | 0.00 | 0.00 | 1022.0 | ||
| 20260509105017 | 0 | 0.0 | 0.0 | 0.00 | 0.00 | 0.00 | 1022.0 | ||
| 20260509104529 | 0 | 0.0 | 0.0 | 0.00 | 0.00 | 0.00 | 1022.0 | ||
| 20260509104014 | 0 | 0.0 | 0.0 | 0.00 | 0.00 | 0.00 | 1022.0 | ||
| 20260509103513 | 0 | 0.0 | 0.0 | 0.00 | 0.00 | 0.00 | 1021.9 | ||
| 20260509103012 | 0 | 0.0 | 0.0 | 0.00 | 0.00 | 0.00 | 1022.1 | ||
| 20260509102510 | 0 | 0.0 | 0.0 | 0.00 | 0.00 | 0.00 | 1022.1 | ||
| 20260509102052 | 0 | 0.0 | 0.0 | 0.00 | 0.00 | 0.00 | 1022.1 | ||
| 20260509101552 | 0 | 0.0 | 0.0 | 0.00 | 0.00 | 0.00 | 1022.1 | ||
| 20260509101049 | 0 | 0.0 | 0.0 | 0.00 | 0.00 | 0.00 | 1022.2 | ||
| 20260509100548 | 0 | 0.0 | 0.0 | 0.00 | 0.00 | 0.00 | 1022.2 | ||
| 20260509100053 | 0 | 0.0 | 0.0 | 0.00 | 0.00 | 0.00 | 1022.2 | ||
| 20260509095545 | 0 | 0.0 | 0.0 | 0.00 | 0.00 | 0.00 | 1022.2 | ||
| 20260509095026 | 0 | 0.0 | 0.0 | 0.00 | 0.00 | 0.00 | 1022.2 | ||
| 20260509094525 | 0 | 0.0 | 0.0 | 0.00 | 0.00 | 0.00 | 1022.1 | ||
| 20260509094023 | 0 | 0.0 | 0.0 | 0.00 | 0.00 | 0.00 | 1022.2 | ||
| 20260509093521 | 0 | 0.0 | 0.0 | 0.00 | 0.00 | 0.00 | 1022.2 | ||
| 20260509093021 | 0 | 0.0 | 0.0 | 0.00 | 0.00 | 0.00 | 1022.2 | ||
| 20260509092518 | 0 | 0.0 | 0.0 | 0.00 | 0.00 | 0.00 | 1022.3 | ||
| 20260509092120 | 0 | 0.0 | 0.0 | 0.00 | 0.00 | 0.00 | 1022.3 | ||
| 20260509091559 | 0 | 0.0 | 0.0 | 0.00 | 0.00 | 0.00 | 1022.2 | ||
| 20260509091100 | 0 | 0.0 | 0.0 | 0.00 | 0.00 | 0.00 | 1022.2 | ||
| 20260509090556 | 0 | 0.0 | 0.0 | 0.00 | 0.00 | 0.00 | 1022.2 | ||
| 20260509085552 | 0 | 0.0 | 0.0 | 0.00 | 0.00 | 0.00 | 1022.2 | ||
| 20260509085051 | 0 | 0.0 | 0.0 | 0.00 | 0.00 | 0.00 | 1022.2 | ||
| 20260509084534 | 0 | 0.0 | 0.0 | 0.00 | 0.00 | 0.00 | 1022.3 | ||
| 20260509084031 | 0 | 0.0 | 0.0 | 0.00 | 0.00 | 0.00 | 1022.4 | ||
| 20260509083528 | 0 | 0.0 | 0.0 | 0.00 | 0.00 | 0.00 | 1022.4 | ||
| 20260509083027 | 0 | 0.0 | 0.0 | 0.00 | 0.00 | 0.00 | 1022.4 | ||
| 20260509082526 | 0 | 0.0 | 0.0 | 0.00 | 0.00 | 0.00 | 1022.5 | ||
| 20260509082025 | 0 | 0.0 | 0.0 | 0.00 | 0.00 | 0.00 | 1022.5 | ||
| 20260509081510 | 0 | 0.0 | 0.0 | 0.00 | 0.00 | 0.00 | 1022.4 | ||
| 20260509081005 | 0 | 0.0 | 0.0 | 0.00 | 0.00 | 0.00 | 1022.4 | ||
| 20260509080503 | 0 | 0.0 | 0.0 | 0.00 | 0.00 | 0.00 | 1022.4 | ||
| 20260509080002 | 0 | 0.0 | 0.0 | 0.00 | 0.00 | 0.00 | 1022.4 | ||
| 20260509075502 | 0 | 0.0 | 0.0 | 0.00 | 0.00 | 0.00 | 1022.4 | ||
| 20260509075100 | 0 | 0.0 | 0.0 | 0.00 | 0.00 | 0.00 | 1022.4 | ||
| 20260509074544 | 0 | 0.0 | 0.0 | 0.00 | 0.00 | 0.00 | 1022.4 | ||
| 20260509074038 | 0 | 0.0 | 0.0 | 0.00 | 0.00 | 0.00 | 1022.3 | ||
| 20260509073538 | 0 | 0.0 | 0.0 | 0.00 | 0.00 | 0.00 | 1022.4 | ||
| 20260509073039 | 0 | 0.0 | 0.0 | 0.00 | 0.00 | 0.00 | 1022.4 | ||
| 20260509072539 | 0 | 0.0 | 0.0 | 0.00 | 0.00 | 0.00 | 1022.5 | ||
| 20260509072035 | 0 | 0.0 | 0.0 | 0.00 | 0.00 | 0.00 | 1022.5 | ||
| 20260509071518 | 0 | 0.0 | 0.0 | 0.00 | 0.00 | 0.00 | 1022.5 | ||
| 20260509071013 | 0 | 0.0 | 0.0 | 0.00 | 0.00 | 0.00 | 1022.5 | ||
| 20260509070513 | 0 | 0.0 | 0.0 | 0.00 | 0.00 | 0.00 | 1022.5 | ||
| 20260509070010 | 0 | 0.0 | 0.0 | 0.00 | 0.00 | 0.00 | 1022.5 | ||
| 20260509065512 | 0 | 0.0 | 0.0 | 0.00 | 0.00 | 0.00 | 1022.5 | ||
| 20260509065008 | 0 | 0.0 | 0.0 | 0.00 | 0.00 | 0.00 | 1022.5 | ||
| 20260509064549 | 53 | 221 | 0.0 | 1.0 | 0.00 | 0.00 | 0.00 | 1 | 1022.5 |
| 20260509064047 | 53 | 221 | 0.0 | 1.0 | 0.00 | 0.00 | 0.00 | 1 | 1022.5 |
| 20260509063545 | 54 | 221 | 0.0 | 1.0 | 0.00 | 0.00 | 0.00 | 1 | 1022.4 |
| 20260509063046 | 54 | 212 | 0.0 | 1.0 | 0.00 | 0.00 | 0.00 | 1 | 1022.4 |
| 20260509062546 | 54 | 212 | 0.0 | 0.0 | 0.00 | 0.00 | 0.00 | 1 | 1022.4 |
| 20260509062046 | 54 | 218 | 0.0 | 1.0 | 0.00 | 0.00 | 0.00 | 1 | 1022.5 |
| 20260509061528 | 54 | 218 | 0.0 | 1.0 | 0.00 | 0.00 | 0.00 | 1 | 1022.5 |
| 20260509061028 | 54 | 238 | 0.0 | 1.0 | 0.00 | 0.00 | 0.00 | 1 | 1022.5 |
| 20260509060528 | 54 | 38 | 0.0 | 0.0 | 0.00 | 0.00 | 0.00 | 1 | 1022.4 |
| 20260509060029 | 54 | 39 | 0.0 | 1.0 | 0.00 | 0.00 | 0.00 | 1 | 1022.4 |
| 20260509055529 | 54 | 149 | 0.0 | 1.0 | 0.00 | 0.00 | 0.00 | 1 | 1022.4 |
| 20260509055027 | 54 | 209 | 0.0 | 1.0 | 0.00 | 0.00 | 0.00 | 1 | 1022.4 |
| 20260509054518 | 54 | 68 | 0.0 | 0.0 | 0.00 | 0.00 | 0.00 | 1 | 1022.4 |
| 20260509054010 | 54 | 49 | 0.0 | 1.0 | 0.00 | 0.00 | 0.00 | 1 | 1022.4 |
| 20260509053511 | 54 | 242 | 0.0 | 1.0 | 0.00 | 0.00 | 0.00 | 1 | 1022.4 |
| 20260509053010 | 54 | 221 | 0.0 | 1.0 | 0.00 | 0.00 | 0.00 | 1 | 1022.4 |
| 20260509052507 | 54 | 222 | 0.0 | 1.0 | 0.00 | 0.00 | 0.00 | 1 | 1022.4 |
| 20260509052008 | 54 | 304 | 0.0 | 1.0 | 0.00 | 0.00 | 0.00 | 1 | 1022.4 |
| 20260509051549 | 54 | 101 | 0.0 | 0.0 | 0.00 | 0.00 | 0.00 | 1 | 1022.3 |
| 20260509051045 | 54 | 88 | 0.0 | 1.0 | 0.00 | 0.00 | 0.00 | 1 | 1022.3 |
| 20260509050546 | 54 | 218 | 0.0 | 1.0 | 0.00 | 0.00 | 0.00 | 1 | 1022.3 |
| 20260509050051 | 54 | 215 | 0.0 | 1.0 | 0.00 | 0.00 | 0.00 | 1 | 1022.3 |
| 20260509045540 | 54 | 204 | 0.0 | 1.0 | 0.00 | 0.00 | 0.00 | 1 | 1022.3 |
| 20260509045039 | 54 | 222 | 0.0 | 1.0 | 0.00 | 0.00 | 0.00 | 1 | 1022.3 |
| 20260509044527 | 54 | 218 | 0.0 | 1.0 | 0.00 | 0.00 | 0.00 | 1 | 1022.3 |
| 20260509044019 | 54 | 81 | 0.0 | 1.0 | 0.00 | 0.00 | 0.00 | 1 | 1022.3 |
| 20260509043519 | 54 | 5 | 0.0 | 1.0 | 0.00 | 0.00 | 0.00 | 1 | 1022.3 |
| 20260509043016 | 54 | 221 | 0.0 | 1.0 | 0.00 | 0.00 | 0.00 | 1 | 1022.2 |
| 20260509042518 | 54 | 72 | 0.0 | 1.0 | 0.00 | 0.00 | 0.00 | 1 | 1022.2 |
| 20260509042013 | 54 | 218 | 0.0 | 1.0 | 0.00 | 0.00 | 0.00 | 1 | 1022.2 |
| 20260509041555 | 54 | 218 | 0.0 | 2.0 | 0.00 | 0.00 | 0.00 | 1 | 1022.2 |
| 20260509041056 | 54 | 236 | 0.0 | 3.0 | 0.00 | 0.00 | 0.00 | 1 | 1022.1 |
| 20260509040555 | 54 | 240 | 0.0 | 3.0 | 0.00 | 0.00 | 0.00 | 1 | 1022.1 |
| 20260509040056 | 54 | 236 | 0.0 | 3.0 | 0.00 | 0.00 | 0.00 | 1 | 1022.1 |
| 20260509035553 | 54 | 238 | 0.0 | 3.0 | 0.00 | 0.00 | 0.00 | 1 | 1022.1 |
| 20260509035155 | 54 | 221 | 0.0 | 2.0 | 0.00 | 0.00 | 0.00 | 1 | 1022.1 |
| 20260509034532 | 54 | 186 | 0.0 | 3.0 | 0.00 | 0.00 | 0.00 | 1 | 1022.1 |
| 20260509034030 | 54 | 219 | 0.0 | 3.0 | 0.00 | 0.00 | 0.00 | 1 | 1022.1 |
| 20260509033529 | 54 | 186 | 0.0 | 2.0 | 0.00 | 0.00 | 0.00 | 1 | 1022.0 |
| 20260509033029 | 54 | 233 | 0.0 | 3.0 | 0.00 | 0.00 | 0.00 | 1 | 1022.0 |
| 20260509032527 | 54 | 215 | 0.0 | 2.0 | 0.00 | 0.00 | 0.00 | 1 | 1022.1 |
| 20260509032027 | 54 | 218 | 0.0 | 3.0 | 0.00 | 0.00 | 0.00 | 1 | 1022.1 |
| 20260509031507 | 54 | 218 | 0.0 | 3.0 | 0.00 | 0.00 | 0.00 | 1 | 1022.2 |
| 20260509031006 | 55 | 232 | 0.0 | 3.0 | 0.00 | 0.00 | 0.00 | 1 | 1022.1 |
| 20260509030505 | 54 | 71 | 0.0 | 4.0 | 0.00 | 0.00 | 0.00 | 1 | 1022.1 |
| 20260509030003 | 55 | 205 | 1.0 | 4.0 | 0.00 | 0.00 | 0.00 | 1 | 1022.1 |
| 20260509025502 | 55 | 238 | 0.0 | 4.0 | 0.00 | 0.00 | 0.00 | 1 | 1022.1 |
| 20260509025004 | 55 | 224 | 0.0 | 2.0 | 0.00 | 0.00 | 0.00 | 1 | 1022.1 |
| 20260509024601 | 55 | 238 | 0.0 | 2.0 | 0.00 | 0.00 | 0.00 | 1 | 1022.1 |
| 20260509024042 | 55 | 215 | 0.0 | 3.0 | 0.00 | 0.00 | 0.00 | 1 | 1022.1 |
| 20260509023540 | 55 | 157 | 0.0 | 3.0 | 0.00 | 0.00 | 0.00 | 1 | 1022.1 |
| 20260509023052 | 55 | 224 | 0.0 | 2.0 | 0.00 | 0.00 | 0.00 | 1 | 1022.1 |
| 20260509022538 | 55 | 68 | 0.0 | 2.0 | 0.00 | 0.00 | 0.00 | 1 | 1022.1 |
| 20260509022036 | 55 | 239 | 0.0 | 3.0 | 0.00 | 0.00 | 0.00 | 1 | 1022.1 |
| 20260509021536 | 55 | 218 | 0.0 | 3.0 | 0.00 | 0.00 | 0.00 | 1 | 1022.2 |
| 20260509021015 | 55 | 226 | 0.0 | 2.0 | 0.00 | 0.00 | 0.00 | 1 | 1022.1 |
| 20260509020520 | 55 | 120 | 0.0 | 2.0 | 0.00 | 0.00 | 0.00 | 1 | 1022.1 |
| 20260509020012 | 55 | 65 | 0.0 | 4.0 | 0.00 | 0.00 | 0.00 | 1 | 1022.1 |
| 20260509015512 | 55 | 224 | 1.0 | 4.0 | 0.00 | 0.00 | 0.00 | 1 | 1022.2 |
| 20260509015010 | 55 | 222 | 0.0 | 7.0 | 0.00 | 0.00 | 0.00 | 1 | 1022.1 |
| 20260509014508 | 55 | 228 | 2.0 | 7.0 | 0.00 | 0.00 | 0.00 | 1 | 1022.2 |
| 20260509014054 | 55 | 228 | 0.0 | 4.0 | 0.00 | 0.00 | 0.00 | 1 | 1022.1 |
| 20260509013549 | 56 | 103 | 0.0 | 4.0 | 0.00 | 0.00 | 0.00 | 1 | 1022.2 |
| 20260509013108 | 56 | 235 | 0.0 | 1.0 | 0.00 | 0.00 | 0.00 | 1 | 1022.1 |
| 20260509012548 | 56 | 102 | 0.0 | 3.0 | 0.00 | 0.00 | 0.00 | 1 | 1022.2 |
| 20260509012051 | 56 | 101 | 0.0 | 3.0 | 0.00 | 0.00 | 0.00 | 1 | 1022.2 |
| 20260509011548 | 56 | 194 | 0.0 | 4.0 | 0.00 | 0.00 | 0.00 | 1 | 1022.2 |
| 20260509011030 | 56 | 236 | 1.0 | 4.0 | 0.00 | 0.00 | 0.00 | 1 | 1022.2 |
| 20260509010532 | 56 | 228 | 0.0 | 6.0 | 0.00 | 0.00 | 0.00 | 1 | 1022.3 |
| 20260509010030 | 56 | 226 | 2.0 | 6.0 | 0.00 | 0.00 | 0.00 | 1 | 1022.3 |
| 20260509005530 | 56 | 229 | 1.0 | 5.0 | 0.00 | 0.00 | 0.00 | 1 | 1022.3 |
| 20260509005029 | 56 | 245 | 1.0 | 2.0 | 0.00 | 0.00 | 0.00 | 1 | 1022.2 |
| 20260509004533 | 56 | 236 | 0.0 | 2.0 | 0.00 | 0.00 | 0.00 | 1 | 1022.4 |
| 20260509004011 | 56 | 157 | 0.0 | 5.0 | 0.00 | 0.00 | 0.00 | 1 | 1022.3 |
| 20260509003515 | 56 | 233 | 0.0 | 5.0 | 0.00 | 0.00 | 0.00 | 1 | 1022.2 |
| 20260509003015 | 56 | 235 | 0.0 | 5.0 | 0.00 | 0.00 | 0.00 | 1 | 1022.3 |
| 20260509002511 | 56 | 223 | 2.0 | 5.0 | 0.00 | 0.00 | 0.00 | 1 | 1022.4 |
| 20260509002011 | 56 | 162 | 0.0 | 3.0 | 0.00 | 0.00 | 0.00 | 1 | 1022.4 |
| 20260509001514 | 56 | 235 | 0.0 | 3.0 | 0.00 | 0.00 | 0.00 | 1 | 1022.4 |
| 20260509001052 | 56 | 236 | 0.0 | 2.0 | 0.00 | 0.00 | 0.00 | 1 | 1022.5 |
| 20260509000551 | 56 | 217 | 0.0 | 2.0 | 0.00 | 0.00 | 0.00 | 1 | 1022.5 |
| 20260509000050 | 56 | 65 | 0.0 | 3.0 | 0.00 | 0.00 | 0.00 | 1 | 1022.4 |
| 20260508235550 | 56 | 222 | 0.0 | 5.0 | 0.00 | 0.00 | 0.00 | 1 | 1022.5 |
| 20260508235046 | 56 | 207 | 1.0 | 5.0 | 0.00 | 0.00 | 0.00 | 1 | 1022.5 |
| 20260508234545 | 56 | 239 | 0.0 | 6.0 | 0.00 | 0.00 | 0.00 | 1 | 1022.5 |
| 20260508234030 | 56 | 248 | 1.0 | 6.0 | 0.00 | 0.00 | 0.00 | 1 | 1022.5 |
| 20260508233526 | 56 | 203 | 1.0 | 7.0 | 0.00 | 0.00 | 0.00 | 1 | 1022.5 |
| 20260508233025 | 56 | 260 | 0.0 | 7.0 | 0.00 | 0.00 | 0.00 | 1 | 1022.6 |
| 20260508232523 | 55 | 218 | 0.0 | 6.0 | 0.00 | 0.00 | 0.00 | 1 | 1022.6 |
| 20260508232022 | 56 | 224 | 1.0 | 5.0 | 0.00 | 0.00 | 0.00 | 1 | 1022.6 |
| 20260508231520 | 56 | 198 | 1.0 | 5.0 | 0.00 | 0.00 | 0.00 | 1 | 1022.6 |
| 20260508231002 | 57 | 233 | 2.0 | 8.0 | 0.00 | 0.00 | 0.00 | 1 | 1022.6 |
| 20260508230603 | 58 | 236 | 0.0 | 8.0 | 0.00 | 0.00 | 0.00 | 1 | 1022.7 |
| 20260508225558 | 59 | 236 | 1.0 | 5.0 | 0.00 | 0.00 | 0.00 | 1 | 1022.6 |
| 20260508225059 | 59 | 223 | 0.0 | 4.0 | 0.00 | 0.00 | 0.00 | 1 | 1022.6 |
| 20260508224606 | 59 | 239 | 1.0 | 5.0 | 0.00 | 0.00 | 0.00 | 1 | 1022.5 |
| 20260508224036 | 59 | 245 | 1.0 | 5.0 | 0.00 | 0.00 | 0.00 | 12 | 1022.5 |
| 20260508223538 | 59 | 217 | 1.0 | 7.0 | 0.00 | 0.00 | 0.00 | 20 | 1022.5 |
| 20260508223035 | 59 | 270 | 2.0 | 5.0 | 0.00 | 0.00 | 0.00 | 26 | 1022.5 |
| 20260508222533 | 59 | 210 | 1.0 | 8.0 | 0.00 | 0.00 | 0.00 | 29 | 1022.4 |
| 20260508222032 | 58 | 198 | 0.0 | 8.0 | 0.00 | 0.00 | 0.00 | 33 | 1022.3 |
| 20260508221533 | 59 | 201 | 0.0 | 4.0 | 0.00 | 0.00 | 0.00 | 31 | 1022.5 |
| 20260508221017 | 59 | 203 | 0.0 | 5.0 | 0.00 | 0.00 | 0.00 | 32 | 1022.5 |
| 20260508220512 | 58 | 218 | 2.0 | 5.0 | 0.00 | 0.00 | 0.00 | 34 | 1022.5 |
| 20260508220010 | 59 | 256 | 0.0 | 5.0 | 0.00 | 0.00 | 0.00 | 34 | 1022.5 |
| 20260508215509 | 58 | 237 | 2.0 | 5.0 | 0.00 | 0.00 | 0.00 | 36 | 1022.4 |
| 20260508215008 | 58 | 233 | 1.0 | 6.0 | 0.00 | 0.00 | 0.00 | 42 | 1022.4 |
| 20260508214507 | 58 | 70 | 1.0 | 6.0 | 0.00 | 0.00 | 0.00 | 43 | 1022.4 |
| 20260508214052 | 58 | 218 | 0.0 | 4.0 | 0.00 | 0.00 | 0.00 | 43 | 1022.3 |
| 20260508213549 | 58 | 242 | 0.0 | 7.0 | 0.00 | 0.00 | 0.00 | 45 | 1022.3 |
| 20260508213110 | 58 | 223 | 1.0 | 7.0 | 0.00 | 0.00 | 0.00 | 46 | 1022.2 |
| 20260508212548 | 58 | 225 | 1.0 | 6.0 | 0.00 | 0.00 | 0.00 | 45 | 1022.2 |
| 20260508212047 | 57 | 208 | 2.0 | 6.0 | 0.00 | 0.00 | 0.00 | 46 | 1022.1 |
| 20260508211546 | 57 | 260 | 1.0 | 6.0 | 0.00 | 0.00 | 0.00 | 45 | 1022.1 |
| 20260508211030 | 57 | 212 | 1.0 | 6.0 | 0.00 | 0.00 | 0.00 | 46 | 1022.1 |
| 20260508210525 | 58 | 218 | 1.0 | 5.0 | 0.00 | 0.00 | 0.00 | 43 | 1022.1 |
| 20260508210025 | 57 | 233 | 2.0 | 6.0 | 0.00 | 0.00 | 0.00 | 47 | 1022.1 |
| 20260508205525 | 57 | 239 | 3.0 | 6.0 | 0.00 | 0.00 | 0.00 | 47 | 1022.0 |
| 20260508205021 | 58 | 86 | 2.0 | 5.0 | 0.00 | 0.00 | 0.00 | 47 | 1022.0 |
| 20260508204522 | 58 | 250 | 1.0 | 6.0 | 0.00 | 0.00 | 0.00 | 47 | 1021.9 |
| 20260508204120 | 58 | 225 | 1.0 | 6.0 | 0.00 | 0.00 | 0.00 | 47 | 1021.9 |
| 20260508203559 | 58 | 160 | 1.0 | 6.0 | 0.00 | 0.00 | 0.00 | 46 | 1021.8 |
| 20260508203115 | 57 | 231 | 2.0 | 6.0 | 0.00 | 0.00 | 0.00 | 48 | 1021.7 |
| 20260508202557 | 57 | 232 | 1.0 | 9.0 | 0.00 | 0.00 | 0.00 | 48 | 1021.7 |
| 20260508202055 | 57 | 218 | 3.0 | 9.0 | 0.00 | 0.00 | 0.00 | 48 | 1021.7 |
| 20260508201554 | 58 | 269 | 1.0 | 6.0 | 0.00 | 0.00 | 0.00 | 46 | 1021.7 |